Total_Precipitation_Accumulation
0.05 0.04 0.02 0.04 0.05 0.11 0.13 0.00 0.00 0.01 0.00 0.00 0.00 0.00 0.02 0.01 0.00 0.00 0.00 0.00 0.03 0.03 0.04 0.01 0.01 0.02 0.07 0.20 0.08 0.00 0.00 0.00 0.00 0.00 0.01 0.00 0.00 0.00 0.01 0.01 0.00 0.00 0.01
0.09 0.20 0.15 0.11 0.10 0.15 0.05 0.09 0.05 0.02 0.02 0.00 0.00 0.00 0.01 0.03 0.02 0.02 0.00 0.00 0.01 0.08 0.14 0.15 0.15 0.04 0.06 0.24 0.26 0.17 0.05 0.00 0.00 0.00 0.00 0.01 0.01 0.00 0.00 0.04 0.07 0.01 0.01
0.18 0.30 0.19 0.19 0.11 0.10 0.14 0.17 0.11 0.08 0.06 0.02 0.03 0.03 0.01 0.01 0.00 0.11 0.14 0.05 0.01 0.06 0.14 0.18 0.26 0.18 0.15 0.29 0.36 0.19 0.20 0.16 0.03 0.00 0.00 0.00 0.01 0.01 0.01 0.02 0.01 0.01 0.01
0.16 0.07 0.05 0.07 0.06 0.09 0.09 0.09 0.09 0.18 0.30 0.12 0.00 0.01 0.04 0.09 0.05 0.11 0.22 0.15 0.14 0.05 0.16 0.17 0.18 0.27 0.30 0.27 0.23 0.17 0.08 0.16 0.14 0.03 0.02 0.01 0.00 0.01 0.03 0.05 0.01 0.00 0.00
0.01 0.01 0.03 0.02 0.02 0.02 0.04 0.06 0.16 0.19 0.10 0.20 0.03 0.04 0.06 0.12 0.21 0.20 0.17 0.17 0.22 0.13 0.11 0.17 0.36 0.40 0.26 0.22 0.24 0.19 0.12 0.13 0.17 0.16 0.10 0.08 0.05 0.04 0.03 0.05 0.04 0.02 0.00
0.01 0.00 0.04 0.04 0.01 0.04 0.06 0.19 0.30 0.20 0.18 0.09 0.08 0.12 0.15 0.15 0.22 0.34 0.29 0.43 0.55 0.24 0.22 0.23 0.80 0.46 0.44 0.52 0.49 0.31 0.24 0.23 0.22 0.13 0.10 0.08 0.04 0.10 0.17 0.15 0.09 0.06 0.06
0.06 0.17 0.15 0.19 0.09 0.15 0.14 0.18 0.29 0.26 0.25 0.23 0.27 0.09 0.04 0.20 0.19 0.21 0.21 0.35 0.44 0.43 0.50 0.59 0.53 0.67 0.41 0.72 1.47 0.52 0.28 0.34 0.28 0.22 0.21 0.29 0.28 0.31 0.27 0.18 0.16 0.16 0.15
0.24 0.50 0.60 0.27 0.22 0.31 0.40 0.16 0.20 0.21 0.10 0.21 0.34 0.25 0.22 0.29 0.61 0.50 0.23 1.18 1.04 1.73 1.33 0.89 0.61 0.80 0.77 0.47 0.96 0.91 0.25 0.23 0.33 0.47 0.27 0.23 0.26 0.28 0.24 0.23 0.22 0.19 0.12
0.22 0.40 0.39 0.35 0.19 0.38 0.30 0.29 0.27 0.48 0.15 0.19 0.18 0.13 0.08 0.23 0.49 0.47 0.69 0.61 0.32 0.31 0.77 2.22 1.53 1.38 1.47 1.39 1.31 1.36 0.86 0.19 0.43 0.44 0.47 0.64 0.97 0.27 0.24 0.34 0.52 0.31 0.14
0.07 0.04 0.10 0.12 0.21 0.33 0.35 0.31 0.53 0.44 0.31 0.25 0.31 0.17 0.13 0.10 0.14 0.16 0.73 0.52 0.10 0.25 0.23 0.10 0.17 0.12 0.37 1.51 2.44 1.89 1.96 0.26 0.24 0.41 0.47 0.24 0.59 0.19 0.11 0.33 0.82 1.05 0.42
0.10 0.06 0.02 0.01 0.01 0.16 0.23 0.29 0.42 0.33 0.32 0.17 0.12 0.21 0.21 0.24 0.29 0.20 0.12 0.01 0.05 0.25 0.48 0.54 0.22 0.35 0.18 0.33 0.76 1.58 0.56 0.40 0.27 0.15 0.16 0.09 0.05 0.08 0.16 0.31 0.26 0.26 0.34
0.09 0.00 0.00 0.00 0.00 0.03 0.05 0.12 0.13 0.11 0.07 0.06 0.05 0.11 0.08 0.16 0.19 0.22 0.09 0.00 0.01 0.00 0.00 0.01 0.02 0.06 0.10 0.05 0.42 0.60 0.27 0.39 0.25 0.12 0.03 0.02 0.12 0.21 0.25 0.31 0.37 0.46 0.21
0.04 0.01 0.00 0.00 0.00 0.00 0.00 0.00 0.00 0.00 0.00 0.01 0.02 0.02 0.01 0.02 0.04 0.05 0.03 0.02 0.00 0.00 0.00 0.00 0.02 0.13 0.22 0.07 0.06 0.11 0.08 0.06 0.08 0.10 0.08 0.05 0.04 0.08 0.16 0.35 0.52 0.43 0.27
0.01 0.00 0.00 0.00 0.00 0.00 0.00 0.00 0.00 0.00 0.00 0.00 0.00 0.00 0.00 0.00 0.00 0.00 0.00 0.00 0.00 0.00 0.00 0.00 0.03 0.12 0.10 0.06 0.04 0.05 0.08 0.27 0.10 0.06 0.12 0.11 0.07 0.05 0.13 0.28 0.29 0.32 0.39
0.00 0.00 0.00 0.00 0.00 0.00 0.00 0.00 0.00 0.00 0.00 0.00 0.00 0.00 0.00 0.00 0.00 0.00 0.00 0.00 0.00 0.00 0.00 0.00 0.00 0.00 0.00 0.02 0.01 0.01 0.03 0.14 0.14 0.04 0.05 0.03 0.04 0.02 0.06 0.16 0.13 0.15 0.27
0.00 0.00 0.00 0.00 0.00 0.00 0.00 0.00 0.00 0.00 0.00 0.00 0.00 0.00 0.00 0.00 0.00 0.00 0.00 0.00 0.00 0.00 0.00 0.00 0.00 0.00 0.00 0.00 0.00 0.00 0.00 0.00 0.01 0.00 0.00 0.00 0.00 0.00 0.00 0.02 0.03 0.05 0.13
0.00 0.00 0.00 0.00 0.00 0.00 0.00 0.00 0.00 0.00 0.00 0.00 0.00 0.00 0.00 0.00 0.00 0.00 0.00 0.00 0.00 0.00 0.00 0.00 0.00 0.00 0.00 0.00 0.00 0.00 0.00 0.00 0.00 0.00 0.00 0.00 0.00 0.00 0.00 0.00 0.00 0.00 0.00
0.00 0.00 0.00 0.00 0.00 0.00 0.00 0.00 0.00 0.00 0.00 0.00 0.00 0.00 0.00 0.00 0.00 0.00 0.00 0.00 0.00 0.00 0.00 0.00 0.00 0.00 0.00 0.00 0.00 0.00 0.00 0.00 0.00 0.00 0.00 0.00 0.00 0.00 0.00 0.00 0.00 0.00 0.00
0.00 0.00 0.00 0.00 0.00 0.00 0.00 0.00 0.00 0.00 0.00 0.00 0.00 0.00 0.01 0.00 0.00 0.01 0.00 0.00 0.00 0.00 0.00 0.00 0.00 0.00 0.00 0.00 0.00 0.00 0.00 0.00 0.00 0.00 0.00 0.00 0.00 0.00 0.00 0.00 0.00 0.00 0.00
0.00 0.00 0.00 0.00 0.00 0.00 0.00 0.00 0.00 0.00 0.00 0.00 0.00 0.01 0.01 0.00 0.00 0.00 0.00 0.01 0.01 0.00 0.00 0.00 0.00 0.00 0.00 0.00 0.00 0.00 0.00 0.00 0.00 0.00 0.00 0.00 0.03 0.09 0.04 0.00 0.00 0.00 0.00
0.00 0.00 0.00 0.00 0.00 0.00 0.00 0.00 0.00 0.00 0.00 0.00 0.00 0.00 0.01 0.00 0.00 0.00 0.00 0.00 0.00 0.00 0.00 0.00 0.00 0.00 0.00 0.01 0.01 0.00 0.00 0.00 0.00 0.00 0.00 0.01 0.01 0.04 0.06 0.08 0.09 0.03 0.02
0.00 0.00 0.00 0.00 0.00 0.00 0.00 0.00 0.00 0.00 0.00 0.00 0.00 0.00 0.00 0.00 0.00 0.00 0.00 0.00 0.00 0.00 0.00 0.01 0.01 0.01 0.01 0.01 0.01 0.00 0.01 0.00 0.01 0.02 0.00 0.02 0.02 0.05 0.05 0.05 0.04 0.02 0.01
0.00 0.00 0.00 0.00 0.00 0.00 0.00 0.00 0.00 0.00 0.00 0.00 0.00 0.00 0.00 0.00 0.00 0.00 0.00 0.00 0.00 0.00 0.00 0.00 0.02 0.04 0.04 0.02 0.00 0.00 0.00 0.00 0.00 0.01 0.01 0.01 0.04 0.10 0.04 0.00 0.00 0.00 0.00
0.00 0.00 0.00 0.00 0.00 0.00 0.00 0.00 0.00 0.00 0.00 0.00 0.00 0.00 0.00 0.00 0.00 0.00 0.00 0.00 0.00 0.01 0.02 0.03 0.04 0.02 0.00 0.00 0.00 0.00 0.00 0.00 0.03 0.09 0.00 0.01 0.02 0.06 0.07 0.00 0.00 0.00 0.00
0.00 0.00 0.00 0.00 0.00 0.00 0.00 0.00 0.00 0.00 0.00 0.00 0.00 0.00 0.00 0.00 0.00 0.00 0.00 0.00 0.00 0.00 0.00 0.00 0.00 0.00 0.00 0.00 0.00 0.00 0.00 0.00 0.02 0.06 0.00 0.00 0.00 0.01 0.08 0.08 0.01 0.00 0.00
0.00 0.00 0.00 0.00 0.00 0.00 0.00 0.00 0.00 0.00 0.00 0.00 0.00 0.00 0.00 0.00 0.00 0.00 0.00 0.00 0.00 0.00 0.00 0.00 0.00 0.00 0.00 0.00 0.00 0.00 0.00 0.00 0.00 0.01 0.00 0.00 0.00 0.00 0.01 0.09 0.06 0.01 0.00